Regional Weather Roundup
Issued by NWS Green Bay, WI

Home | Current Version | Previous Version | Graphics & Text | Print | Product List | Glossary Off
Versions: 1 2 3 4 5 6 7 8 9 10 11 12 13 14 15 16 17 18 19 20 21 22 23 24 25 26 27 28 29 30 31 32 33 34 35 36 37 38 39 40 41 42 43 44 45 46 47 48 49 50

000
ASUS43 KGRB 260801
RWRGRB

NORTH-CENTRAL AND NORTHEAST WISCONSIN REGIONAL WEATHER ROUNDUP
NATIONAL WEATHER SERVICE GREEN BAY WI
300 AM CDT WED JUL 26 2017

WIZ005-009-010>012-018-019-260900-
NORTH CENTRAL WISCONSIN

CITY           SKY/WX    TMP DP  RH WIND       PRES   REMARKS
IRONWOOD       CLOUDY    69  66  90 SW6       29.93F
MANITOWISH WTR NOT AVBL
ARBOR VITAE    NOT AVBL
EAGLE RIVER    NOT AVBL
LAND O LAKES   CLOUDY    69  65  88 SW3       29.99F
RHINELANDER    MOCLDY    69  66  90 S10G17    30.00F
PHILLIPS       MOCLDY    69  68  97 S7        29.98F
ANTIGO         NOT AVBL
TOMAHAWK       NOT AVBL
MERRILL        NOT AVBL
$$

WIZ013-073-260900-
NORTHEAST WISCONSIN

CITY           SKY/WX    TMP DP  RH WIND       PRES   REMARKS
IRON MOUNTAIN  CLOUDY    67  61  81 SW3       29.98F
MARINETTE      CLOUDY    71  63  75 SW13G18   30.00F
$$

WIZ017-030-035>037-045-260900-
CENTRAL WISCONSIN

CITY           SKY/WX    TMP DP  RH WIND       PRES   REMARKS
MEDFORD        NOT AVBL
WAUSAU         TSTM      68  66  93 SW17G26   30.04R VSB 3/4
MOSINEE        NOT AVBL
MARSHFIELD     CLOUDY    68  65  90 MISG      30.07R
WISC RAPIDS    CLOUDY    69  66  90 S7        30.03F
STEVENS POINT  NOT AVBL
WAUPACA        NOT AVBL
SHAWANO        TSTM      69  63  82 S3        30.04S
CLINTONVILLE   CLOUDY   N/A N/A N/A S5        30.04F
WAUTOMA        MOCLDY    68  63  84 S5        30.05F
$$

WIZ038-039-048-051-260900-
FOX VALLEY

CITY           SKY/WX    TMP DP  RH WIND       PRES   REMARKS
NWS GREEN BAY  CLOUDY    67  62  84 S9        30.03F
APPLETON       NOT AVBL
OSHKOSH        PTCLDY    67  61  81 S13       30.05F
FOND DU LAC    CLOUDY    67  59  75 S10       30.06F
$$

WIZ022-050-052-260900-
EAST CENTRAL WISCONSIN

CITY           SKY/WX    TMP DP  RH WIND       PRES   REMARKS
EPHRAIM        NOT AVBL
WASHINGTON ISL NOT AVBL
STURGEON BAY     N/A     68  61  78 S16       30.01F
MANITOWOC      NOT AVBL
SHEBOYGAN      MOCLDY    66  61  84 S7        30.08F
$$

LMZ563-521-522-541>543-260900-
LAKESHORE

STATION/POSITION TIME  TEMP    WIND        PRES    VSBY  WAVE
                       AIR SEA DIR/SP/G                  HT/PER
                 (UTC) (F)     (DEG/KT/KT) (MB)    (MI)  (FT/S)
SHEBOYGAN LKSHOR 0700   70     190/ 18/ 19 1018.4F
KEWAUNEE LKSHORE 0730   69     210/  6/  9 1017.4F
NORTHPORT PIER   0740   67     150/  7/ 11 1016.3F
N MID LAKE BUOY  0650   68 66  210/ 17/ 21 1019.1R         3/ 5
S GREEN BAY BUOY 0730   71 72  200/ 17/ 21 1016.4F
SISTER BAY LKSHO 0717   66     160/  8/ 10   N/A
CHAMBERS ISLAND  0740   70     180/  9/ 16 1015.2F
MENOMINEE LKSHOR 0730   71     200/ 12/ 16 1015.6F
$$




USA.gov is the U.S. government's official web portal to all federal, state and local government web resources and services.